Change the Weather History Date:

Saturday, March 23, 2013

  Actual Average Record
Temperature  
Mean Temperature 20 °F 41 °F  
Max Temperature 27 °F 54 °F 76 °F (1967)
Min Temperature 13 °F 28 °F -5 °F (1898)
Degree Days  
Heating Degree Days 45 24  
Month to date heating degree days 602 619  
Since 1 July heating degree days 4946 5182  
Cooling Degree Days 0 0  
Month to date cooling degree days 0 0  
Year to date cooling degree days 0 0  
Moisture  
Dew Point 12 °F    
Average Humidity 69    
Maximum Humidity 81    
Minimum Humidity 56    
Precipitation  
Precipitation 0.03 in 0.04 in 0.60 in (1919)
Month to date precipitation 0.13 0.72  
Year to date precipitation 1.21 1.38  
Snow  
Snow 0.50 in 0.30 in 5.30 in (2010)
Month to date snowfall 3.6 6.0  
Since 1 July snowfall 23.6 30.0  
Snow Depth T in    
Sea Level Pressure  
Sea Level Pressure 29.98 in    
Wind  
Wind Speed 19 mph (NNW)    
Max Wind Speed 37 mph    
Max Gust Speed 45 mph    
Visibility 4 miles    
Events Snow    
T = Trace of Precipitation, MM = Missing Value Source: NWS Daily Summary

Daily Weather History Graph

Daily Weather History Graph

Search for Another Location

Airport or City:

Trip Planner

Search our weather history database for the weather conditions in past years. The results will help you decide how hot, cold, wet, or windy it might be!

Date:

Astronomy

Mar. 23, 2013 Rise Set
Actual Time 6:57 AM MDT 7:13 PM MDT
Civil Twilight 6:30 AM MDT 7:40 PM MDT
Nautical Twilight 5:59 AM MDT 8:11 PM MDT
Astronomical Twilight 5:27 AM MDT 8:43 PM MDT
Moon 3:45 PM MDT (3/23) 4:32 AM MDT (3/23)
Length of Visible Light 13h 10m
Length of Day
12h 16m
Waxing Gibbous, 85% of the Moon is Illuminated
Mar 23
Waxing Gibbous
Mar 27
Full
Apr 2
Last Quarter
Apr 10
New
Apr 18
First Quarter

Hourly Weather History & Observations

Time (MDT) Temp. Windchill Dew Point Humidity Pressure Visibility Wind Dir Wind Speed Gust Speed Precip Events Conditions
12:26 AM 26.6 °F 14.3 °F 19.4 °F 74% 29.82 in 4.0 mi North 16.1 mph - 0.00 in Snow Light Snow
12:54 AM 26.1 °F 13.6 °F 19.9 °F 78% 29.89 in 1.8 mi NNW 16.1 mph - 0.01 in Snow Light Snow
1:29 AM 26.6 °F 10.3 °F 19.4 °F 74% 29.81 in 2.0 mi WNW 29.9 mph 120.8 mph 0.00 in Snow Light Snow
1:32 AM 26.6 °F 15.2 °F 19.4 °F 74% 29.81 in 3.0 mi North 13.8 mph - 0.00 in Snow Light Snow
1:47 AM 26.6 °F 16.8 °F 19.4 °F 74% 29.81 in 9.0 mi NNW 10.4 mph - 0.00 in   Overcast
1:54 AM 26.1 °F 15.6 °F 19.0 °F 75% 29.84 in 10.0 mi NNW 11.5 mph - 0.00 in   Overcast
2:54 AM 26.1 °F 15.6 °F 18.0 °F 71% 29.83 in 8.0 mi NNW 11.5 mph - 0.00 in Snow Light Snow
3:54 AM 25.0 °F 15.5 °F 19.0 °F 78% 29.83 in 6.0 mi NNW 9.2 mph - 0.00 in Snow Light Snow
4:54 AM 24.1 °F 11.0 °F 15.1 °F 69% 29.84 in 10.0 mi NNW 16.1 mph - 0.00 in   Overcast
5:54 AM 23.0 °F 10.6 °F 15.1 °F 72% 29.84 in 10.0 mi NW 13.8 mph 20.7 mph N/A   Overcast
6:35 AM 21.2 °F 7.3 °F 15.8 °F 80% 29.80 in 2.5 mi North 16.1 mph - 0.00 in Snow Light Snow
6:46 AM 21.2 °F 7.8 °F 15.8 °F 80% 29.80 in 1.2 mi NNW 15.0 mph - 0.00 in Snow Light Snow
6:54 AM 21.9 °F 10.4 °F 16.0 °F 78% 29.90 in 1.0 mi NNW 11.5 mph - 0.00 in Snow Light Snow
7:11 AM 21.2 °F 6.0 °F 15.8 °F 80% 29.81 in 0.8 mi NW 19.6 mph 25.3 mph 0.01 in Snow Light Snow
7:39 AM 21.2 °F 7.3 °F 15.8 °F 80% 29.80 in 0.5 mi NNW 16.1 mph - 0.02 in Snow Light Snow
7:54 AM 21.0 °F 8.1 °F 16.0 °F 81% 29.93 in 0.5 mi NNW 13.8 mph 23.0 mph 0.02 in Snow Light Snow
8:10 AM 21.2 °F 5.6 °F 15.8 °F 80% 29.81 in 0.5 mi NNW 20.7 mph 28.8 mph 0.00 in Snow Snow
8:35 AM 21.2 °F 6.0 °F 15.8 °F 80% 29.80 in 0.8 mi NNW 19.6 mph 29.9 mph 0.01 in Snow Light Snow
8:54 AM 21.9 °F 7.8 °F 15.1 °F 75% 29.93 in 0.8 mi NNW 17.3 mph 25.3 mph 0.01 in Snow Light Snow
9:18 AM 21.2 °F 5.2 °F 12.2 °F 68% 29.81 in 1.0 mi North 21.9 mph 29.9 mph 0.00 in Snow Light Snow
9:54 AM 19.0 °F 1.3 °F 10.9 °F 71% 29.97 in 1.0 mi North 25.3 mph 36.8 mph 0.00 in Snow Light Snow
10:54 AM 18.0 °F 0.2 °F 9.0 °F 68% 30.01 in 0.8 mi NNW 24.2 mph 39.1 mph 0.00 in Snow Light Snow
11:54 AM 17.1 °F -2.4 °F 9.0 °F 71% 30.06 in 0.5 mi NNW 28.8 mph 39.1 mph 0.00 in Snow Snow
12:11 PM 17.6 °F -1.3 °F 8.6 °F 68% 29.89 in 1.0 mi NNW 27.6 mph 36.8 mph 0.00 in Snow Light Snow
12:54 PM 17.1 °F -2.0 °F 7.0 °F 65% 30.08 in 1.0 mi NNW 27.6 mph 40.3 mph 0.00 in Snow Light Snow
1:37 PM 17.6 °F -1.3 °F 5.0 °F 58% 29.92 in 2.5 mi NNW 27.6 mph 43.7 mph 0.00 in Snow Blowing Snow
1:54 PM 18.0 °F -1.7 °F 5.0 °F 57% 30.10 in 2.5 mi NNW 31.1 mph 41.4 mph 0.00 in Snow Blowing Snow
2:01 PM 17.6 °F -2.5 °F 6.8 °F 63% 29.93 in 4.0 mi NNW 32.2 mph 42.6 mph N/A Snow Blowing Snow
2:54 PM 17.1 °F -2.4 °F 6.1 °F 62% 30.11 in 6.0 mi NNW 28.8 mph 39.1 mph N/A Snow Blowing Snow
3:31 PM 17.6 °F 0.5 °F 8.6 °F 68% 29.95 in 2.5 mi NNW 21.9 mph 31.1 mph 0.00 in Snow Light Snow
3:54 PM 19.0 °F 1.3 °F 9.0 °F 65% 30.14 in 3.0 mi NNW 25.3 mph 34.5 mph 0.00 in Snow Light Snow
4:17 PM 17.6 °F -2.2 °F 5.0 °F 58% 29.97 in 3.0 mi NNW 31.1 mph 40.3 mph 0.00 in   Overcast
4:54 PM 18.0 °F 0.9 °F 7.0 °F 62% 30.16 in 3.0 mi NNW 21.9 mph 32.2 mph 0.00 in   Overcast
5:54 PM 19.0 °F 2.0 °F 6.1 °F 57% 30.17 in 10.0 mi NNW 23.0 mph 33.4 mph N/A   Mostly Cloudy
6:54 PM 17.1 °F 0.6 °F 5.0 °F 59% 30.23 in 10.0 mi NNW 19.6 mph 33.4 mph N/A   Mostly Cloudy
7:54 PM 16.0 °F 0.6 °F 6.1 °F 65% 30.28 in 10.0 mi NW 16.1 mph - N/A   Mostly Cloudy
8:54 PM 15.1 °F 0.5 °F 5.0 °F 64% 30.31 in 10.0 mi NNW 13.8 mph - N/A   Clear
9:54 PM 15.1 °F 1.8 °F 5.0 °F 64% 30.34 in 10.0 mi NNW 11.5 mph - N/A   Partly Cloudy
10:54 PM 15.1 °F 1.8 °F 5.0 °F 64% 30.34 in 10.0 mi NNW 11.5 mph - N/A   Mostly Cloudy
11:54 PM 16.0 °F 6.3 °F 3.9 °F 59% 30.34 in 10.0 mi NW 6.9 mph - N/A   Overcast